Location: Newark
(47.3150°N, 5.1150°E)
Time: 09:48:33
(UTC+00:00)

Envisat - Pass Details

Date: 23 October 2019
Orbit: 764 x 766 km, 98.1° (Epoch: 18 November)

Event Time Altitude Azimuth Distance (km) Brightness Sun altitude
Rises 17:18:19 0° 156° (SSE) 3,221 6.1 -7.5°
Reaches altitude 10° 17:20:38 10° 154° (SSE) 2,299 5.3 -7.9°
Maximum altitude 17:25:39 67° 73° (ENE) 833 3.0 -8.7°
Drops below altitude 10° 17:30:42 10° 351° (N) 2,315 5.5 -9.6°
Sets 17:33:02 0° 349° (N) 3,245 6.3 -10.0°
